Flag for Germany Weather past 2 weeks in Offenburg, Baden-Württemberg, Germany

Now
61 °F

Drizzle. Overcast.


Feels Like: 61 °F
Forecast: 62 / 74 °F
Wind: 2 mph from South

Location: Lahr

Current Time: Jul 29, 2014 at 4:49:37 AM

Latest Report: Jul 29, 2014 at 4:00 AM


Visibility: 3 mi

Pressure: 29.83 "Hg

Humidity: 100%

Dew point: 61 °F

Location of OffenburgLocation

Historic Weather in Offenburg — Graph

°F

Offenburg temperature yesterday

Maximum temperature yesterday: 78 °F (at 3:00 PM)
Minimum temperature yesterday: 62 °F (at 7:00 PM)
Average temperature yesterday: 69 °F

Past Weeks' High & Low Weather Summary

 TemperatureHumidityPressure
High94 °F (Jul 18, 7:00 PM)100% (Jul 21, 1:00 AM)30.19 "Hg (Jul 21, 1:00 AM)
Low57 °F (Jul 16, 6:00 AM)29% (Jul 18, 6:00 PM)29.77 "Hg (Jul 28, 5:00 PM)
Average70 °F78%29.97 "Hg
* Reported Jul 14 4:00 AM — Jul 29 4:00 AM, Offenburg, Weather by CustomWeather, © 2014

Note: Actual official high and low records may vary slightly from our data, if they occured in-between our weather recording intervals... More about our weather records

Advertising

Offenburg weather history for previous 24 hours

 ConditionsComfort  
Time TempWeatherWind HumidityBarometerVisibility
4:00 AM
Jul 29
61 °FDrizzle. Overcast.2 mph100%29.83 "Hg3 mi
3:00 AM61 °FRain. Overcast.1 mph98%29.85 "Hg1 mi
2:00 AM62 °FDrizzle. Low clouds.2 mph98%29.86 "Hg6 mi
1:00 AM62 °FLight rain. Overcast.2 mph100%29.85 "Hg19 mi
12:00 AM62 °FLight rain. Overcast.1 mph100%29.86 "Hg12 mi
11:00 PM
Jul 28
63 °FLight rain. Overcast.1 mph99%29.88 "Hg8 mi
10:00 PM62 °FRain. Overcast.1 mph99%29.88 "Hg3 mi
9:00 PM62 °FOvercast.2 mph99%29.87 "Hg25 mi
8:00 PM62 °FOvercast.1 mph99%29.86 "Hg28 mi
7:00 PM62 °FLight freezing rain. Low clouds.2 mph100%29.86 "Hg16 mi
6:00 PM64 °FOvercast.8 mph92%29.84 "Hg0 mi
5:00 PM76 °FThunderstorms. Overcast.5 mph69%29.77 "Hg22 mi
4:00 PM78 °FOvercast.3 mph62%29.78 "Hg22 mi
3:00 PM78 °FThunderstorms. Partly sunny.3 mph68%29.81 "Hg12 mi
2:00 PM75 °FThundershowers. Overcast.2 mph71%29.83 "Hg12 mi
1:00 PM75 °FThunderstorms. Overcast.2 mph68%29.84 "Hg12 mi
12:00 PM75 °FOvercast.2 mph72%29.85 "Hg12 mi
11:00 AM72 °FOvercast.2 mph76%29.87 "Hg19 mi
10:00 AM71 °FOvercast.1 mph81%29.89 "Hg22 mi
9:00 AM70 °FPartly sunny.2 mph82%29.89 "Hg22 mi
8:00 AM69 °FOvercast.1 mph86%29.89 "Hg22 mi
7:00 AM67 °FOvercast.2 mph90%29.90 "Hg16 mi
6:00 AM66 °FOvercast.2 mph93%29.90 "Hg16 mi
5:00 AM66 °FOvercast.1 mph94%29.91 "Hg9 mi
4:00 AM67 °FOvercast.1 mph92%29.93 "Hg11 mi
Weather by CustomWeather, © 2014

See weather overviewHow to use our weather pages